Location: Unspecified
(49.2170°N, 0.0000°E)
Time: 18:57:59
(UTC+00:00)

A-11 Canister half - Pass Details

Date: 26 January 2021
Orbit: 1516 x 1684 km, 47.2° (Epoch: 05 March)

Event Time Altitude Azimuth Distance (km) Brightness Sun altitude
Rises 20:12:45 0° 234° (SW) 4,756 12.1 -33.4°
Reaches altitude 10° 20:15:55 10° 230° (SW) 3,752 11.4 -33.9°
Enters shadow 20:23:57 56° 182° (S) 1,788 9.1 -35.2°
